START_TIME,STEP,MOV.,P11,t_acc.,P23,t_acc.,P27,t_acc.,A4,t_acc.
1979-07-13 18:00:23.420 ,0,1,63.,4.8,0.,4.8,0.,4.8,0.,4.8
1979-07-13 18:00:28.220 ,0,1,72.,4.8,0.,4.8,0.,4.8,0.,4.8
1979-07-13 18:00:33.020 ,0,1,59.,4.8,0.,4.8,0.,4.8,0.,4.8
1979-07-13 18:00:37.820 ,0,1,74.,4.8,0.,4.8,0.,4.8,0.,4.8
1979-07-13 18:00:42.620 ,0,1,82.,4.8,0.,4.8,0.,4.8,1.,4.8
1979-07-13 18:00:47.420 ,4,1,82.,4.8,0.,4.8,0.,4.8,0.,4.8
1979-07-13 18:00:52.220 ,4,1,92.,4.8,0.,4.8,0.,4.8,0.,4.8
1979-07-13 18:00:57.020 ,4,1,68.,4.8,0.,4.8,0.,4.8,0.,4.8
1979-07-13 18:01:01.820 ,4,1,100.,4.8,0.,4.8,0.,4.8,1.,4.8
1979-07-13 18:01:06.620 ,4,1,82.,4.8,0.,4.8,0.,4.8,1.,4.8
1979-07-13 18:01:11.420 ,7,1,74.,4.8,0.,4.8,0.,4.8,0.,4.8
1979-07-13 18:01:16.220 ,7,1,68.,4.8,0.,4.8,0.,4.8,0.,4.8
1979-07-13 18:01:21.020 ,7,1,66.,4.8,0.,4.8,0.,4.8,1.,4.8
1979-07-13 18:01:25.820 ,7,1,50.,4.8,0.,4.8,0.,4.8,0.,4.8
1979-07-13 18:01:30.620 ,7,1,62.,4.8,0.,4.8,0.,4.8,0.,4.8
1979-07-13 18:01:35.420 ,3,1,60.,4.8,0.,4.8,0.,4.8,0.,4.8
1979-07-13 18:01:40.220 ,3,1,76.,4.8,0.,4.8,0.,4.8,0.,4.8
1979-07-13 18:01:45.020 ,3,1,70.,4.8,0.,4.8,0.,4.8,1.,4.8
1979-07-13 18:01:49.820 ,3,1,74.,4.8,0.,4.8,0.,4.8,0.,4.8
1979-07-13 18:01:54.620 ,3,1,84.,4.8,0.,4.8,0.,4.8,0.,4.8
1979-07-13 18:01:59.420 ,0,1,74.,4.8,0.,4.8,0.,4.8,0.,4.8
1979-07-13 18:02:04.220 ,0,1,78.,4.8,0.,4.8,0.,4.8,0.,4.8
1979-07-13 18:02:09.020 ,0,1,76.,4.8,0.,4.8,0.,4.8,0.,4.8
1979-07-13 18:02:13.820 ,0,1,78.,4.8,0.,4.8,0.,4.8,0.,4.8
1979-07-13 18:02:18.620 ,0,1,76.,4.8,0.,4.8,0.,4.8,0.,4.8
1979-07-13 18:02:23.420 ,4,1,68.,4.8,0.,4.8,0.,4.8,0.,4.8
1979-07-13 18:02:28.220 ,4,1,,0,,0,,0,,0
1979-07-13 18:02:33.020 ,4,1,78.,4.8,0.,4.8,0.,4.8,0.,4.8
1979-07-13 18:02:37.820 ,4,1,61.,4.8,0.,4.8,0.,4.8,0.,4.8
1979-07-13 18:02:42.620 ,4,1,76.,4.8,0.,4.8,0.,4.8,0.,4.8
1979-07-13 18:02:47.420 ,7,1,88.,4.8,0.,4.8,0.,4.8,0.,4.8
1979-07-13 18:02:52.220 ,7,1,66.,4.8,0.,4.8,0.,4.8,0.,4.8
1979-07-13 18:02:57.020 ,7,1,76.,4.8,0.,4.8,0.,4.8,0.,4.8
1979-07-13 18:03:01.820 ,7,1,63.,4.8,0.,4.8,0.,4.8,0.,4.8
1979-07-13 18:03:06.620 ,7,1,55.,4.8,0.,4.8,0.,4.8,0.,4.8
1979-07-13 18:03:11.420 ,3,1,58.,4.8,0.,4.8,0.,4.8,0.,4.8
1979-07-13 18:03:16.220 ,3,1,78.,4.8,0.,4.8,0.,4.8,0.,4.8
1979-07-13 18:03:21.020 ,3,1,72.,4.8,0.,4.8,0.,4.8,0.,4.8
1979-07-13 18:03:25.820 ,3,1,86.,4.8,0.,4.8,0.,4.8,0.,4.8
1979-07-13 18:03:30.620 ,3,1,80.,4.8,0.,4.8,0.,4.8,0.,4.8
1979-07-13 18:03:35.420 ,0,1,72.,4.8,0.,4.8,0.,4.8,0.,4.8
1979-07-13 18:03:40.220 ,0,1,82.,4.8,0.,4.8,0.,4.8,0.,4.8
1979-07-13 18:03:45.020 ,0,1,72.,4.8,0.,4.8,0.,4.8,0.,4.8
1979-07-13 18:03:49.820 ,0,1,92.,4.8,0.,4.8,0.,4.8,0.,4.8
1979-07-13 18:03:54.620 ,0,1,86.,4.8,0.,4.8,0.,4.8,0.,4.8
1979-07-13 18:03:59.420 ,4,1,70.,4.8,0.,4.8,0.,4.8,0.,4.8
1979-07-13 18:04:04.220 ,4,1,58.,4.8,0.,4.8,0.,4.8,0.,4.8
1979-07-13 18:04:09.020 ,4,1,66.,4.8,0.,4.8,0.,4.8,0.,4.8
1979-07-13 18:04:13.820 ,4,1,59.,4.8,0.,4.8,0.,4.8,0.,4.8
1979-07-13 18:04:18.620 ,4,1,70.,4.8,0.,4.8,0.,4.8,0.,4.8
1979-07-13 18:04:23.420 ,7,1,66.,4.8,0.,4.8,0.,4.8,0.,4.8
1979-07-13 18:04:28.220 ,7,1,78.,4.8,0.,4.8,0.,4.8,0.,4.8
1979-07-13 18:04:33.020 ,7,1,64.,4.8,0.,4.8,0.,4.8,0.,4.8
1979-07-13 18:04:37.820 ,7,1,53.,4.8,0.,4.8,0.,4.8,0.,4.8
1979-07-13 18:04:42.620 ,7,1,62.,4.8,0.,4.8,0.,4.8,0.,4.8
1979-07-13 18:04:47.420 ,3,1,57.,4.8,0.,4.8,0.,4.8,0.,4.8
1979-07-13 18:04:52.220 ,3,1,61.,4.8,0.,4.8,0.,4.8,0.,4.8
1979-07-13 18:04:57.020 ,3,1,72.,4.8,0.,4.8,0.,4.8,1.,4.8
1979-07-13 18:05:01.820 ,3,1,68.,4.8,0.,4.8,0.,4.8,0.,4.8
1979-07-13 18:05:06.620 ,3,1,76.,4.8,0.,4.8,0.,4.8,0.,4.8
1979-07-13 18:05:11.420 ,0,1,70.,4.8,0.,4.8,0.,4.8,0.,4.8
1979-07-13 18:05:16.220 ,0,1,70.,4.8,0.,4.8,0.,4.8,0.,4.8
1979-07-13 18:05:21.020 ,0,1,80.,4.8,0.,4.8,0.,4.8,0.,4.8
1979-07-13 18:05:25.820 ,0,1,78.,4.8,0.,4.8,0.,4.8,1.,4.8
1979-07-13 18:05:30.620 ,0,1,76.,4.8,0.,4.8,0.,4.8,0.,4.8
1979-07-13 18:05:35.420 ,0,0,76.,4.8,0.,4.8,0.,4.8,0.,4.8
1979-07-13 18:05:40.220 ,0,0,78.,4.8,0.,4.8,0.,4.8,0.,4.8
1979-07-13 18:05:45.020 ,0,0,64.,4.8,0.,4.8,0.,4.8,1.,4.8
1979-07-13 18:05:49.820 ,0,0,78.,4.8,0.,4.8,0.,4.8,0.,4.8
1979-07-13 18:05:54.620 ,0,0,74.,4.8,0.,4.8,0.,4.8,0.,4.8
1979-07-13 18:05:59.420 ,0,0,78.,4.8,0.,4.8,0.,4.8,0.,4.8
1979-07-13 18:06:04.220 ,0,0,64.,4.8,0.,4.8,0.,4.8,0.,4.8
1979-07-13 18:06:09.020 ,0,0,56.,4.8,0.,4.8,0.,4.8,0.,4.8
1979-07-13 18:06:13.820 ,0,0,51.,4.8,0.,4.8,0.,4.8,0.,4.8
1979-07-13 18:06:18.620 ,0,0,41.,4.8,0.,4.8,0.,4.8,0.,4.8
1979-07-13 18:06:23.420 ,5,0,50.,4.8,0.,4.8,0.,4.8,0.,4.8
1979-07-13 18:06:28.220 ,5,0,66.,4.8,0.,4.8,0.,4.8,1.,4.8
1979-07-13 18:06:33.020 ,5,0,66.,4.8,0.,4.8,0.,4.8,0.,4.8
1979-07-13 18:06:37.820 ,5,0,76.,4.8,0.,4.8,0.,4.8,0.,4.8
1979-07-13 18:06:42.620 ,5,0,78.,4.8,0.,4.8,0.,4.8,0.,4.8
1979-07-13 18:06:47.420 ,5,0,78.,4.8,0.,4.8,0.,4.8,0.,4.8
1979-07-13 18:06:52.220 ,5,0,74.,4.8,0.,4.8,0.,4.8,0.,4.8
1979-07-13 18:06:57.020 ,5,0,88.,4.8,0.,4.8,0.,4.8,0.,4.8
1979-07-13 18:07:01.820 ,5,0,74.,4.8,0.,4.8,0.,4.8,0.,4.8
1979-07-13 18:07:06.620 ,5,0,68.,4.8,0.,4.8,0.,4.8,0.,4.8
1979-07-13 18:07:11.420 ,4,0,72.,4.8,0.,4.8,0.,4.8,0.,4.8
1979-07-13 18:07:16.220 ,4,0,74.,4.8,0.,4.8,0.,4.8,0.,4.8
1979-07-13 18:07:21.020 ,4,0,72.,4.8,0.,4.8,0.,4.8,0.,4.8
1979-07-13 18:07:25.820 ,4,0,68.,4.8,0.,4.8,0.,4.8,0.,4.8
1979-07-13 18:07:30.620 ,4,0,74.,4.8,0.,4.8,0.,4.8,0.,4.8
1979-07-13 18:07:35.420 ,4,0,76.,4.8,0.,4.8,0.,4.8,0.,4.8
1979-07-13 18:07:40.220 ,4,0,78.,4.8,0.,4.8,0.,4.8,0.,4.8
1979-07-13 18:07:45.020 ,4,0,74.,4.8,0.,4.8,0.,4.8,0.,4.8
1979-07-13 18:07:49.820 ,4,0,54.,4.8,0.,4.8,0.,4.8,0.,4.8
1979-07-13 18:07:54.620 ,4,0,70.,4.8,0.,4.8,0.,4.8,0.,4.8
1979-07-13 18:07:59.420 ,3,0,68.,4.8,0.,4.8,0.,4.8,0.,4.8
1979-07-13 18:08:04.220 ,3,0,82.,4.8,0.,4.8,0.,4.8,0.,4.8
1979-07-13 18:08:09.020 ,3,0,62.,4.8,0.,4.8,0.,4.8,0.,4.8
1979-07-13 18:08:13.820 ,3,0,63.,4.8,0.,4.8,0.,4.8,0.,4.8
1979-07-13 18:08:18.620 ,3,0,70.,4.8,0.,4.8,0.,4.8,0.,4.8
1979-07-13 18:08:23.420 ,3,0,49.,4.8,0.,4.8,0.,4.8,0.,4.8
1979-07-13 18:08:28.220 ,3,0,68.,4.8,0.,4.8,0.,4.8,0.,4.8
1979-07-13 18:08:33.020 ,3,0,56.,4.8,0.,4.8,0.,4.8,0.,4.8
1979-07-13 18:08:37.820 ,3,0,66.,4.8,0.,4.8,0.,4.8,0.,4.8
1979-07-13 18:08:42.620 ,3,0,59.,4.8,0.,4.8,0.,4.8,0.,4.8
1979-07-13 18:08:47.420 ,2,0,76.,4.8,0.,4.8,0.,4.8,0.,4.8
1979-07-13 18:08:52.220 ,2,0,66.,4.8,0.,4.8,0.,4.8,0.,4.8
1979-07-13 18:08:57.020 ,2,0,66.,4.8,0.,4.8,0.,4.8,0.,4.8
1979-07-13 18:09:01.820 ,2,0,59.,4.8,0.,4.8,0.,4.8,0.,4.8
1979-07-13 18:09:06.620 ,2,0,80.,4.8,0.,4.8,0.,4.8,0.,4.8
1979-07-13 18:09:11.420 ,2,0,68.,4.8,0.,4.8,0.,4.8,0.,4.8
1979-07-13 18:09:16.220 ,2,0,72.,4.8,0.,4.8,0.,4.8,0.,4.8
1979-07-13 18:09:21.020 ,2,0,64.,4.8,0.,4.8,0.,4.8,0.,4.8
1979-07-13 18:09:25.820 ,2,0,64.,4.8,0.,4.8,0.,4.8,0.,4.8
1979-07-13 18:09:30.620 ,2,0,72.,4.8,0.,4.8,0.,4.8,0.,4.8
1979-07-13 18:09:35.420 ,1,0,80.,4.8,0.,4.8,0.,4.8,0.,4.8
1979-07-13 18:09:40.220 ,1,0,72.,4.8,0.,4.8,0.,4.8,0.,4.8
1979-07-13 18:09:45.020 ,1,0,66.,4.8,0.,4.8,0.,4.8,0.,4.8
1979-07-13 18:09:49.820 ,1,0,66.,4.8,0.,4.8,0.,4.8,1.,4.8
1979-07-13 18:09:54.620 ,1,0,86.,4.8,0.,4.8,0.,4.8,0.,4.8
1979-07-13 18:09:59.420 ,1,0,68.,4.8,0.,4.8,0.,4.8,0.,4.8
1979-07-13 18:10:04.220 ,1,0,90.,4.8,0.,4.8,0.,4.8,0.,4.8
1979-07-13 18:10:09.020 ,1,0,80.,4.8,0.,4.8,0.,4.8,0.,4.8
1979-07-13 18:10:13.820 ,1,0,86.,4.8,0.,4.8,0.,4.8,0.,4.8
1979-07-13 18:10:18.620 ,1,0,58.,4.8,0.,4.8,0.,4.8,0.,4.8
1979-07-13 18:10:23.420 ,0,0,90.,4.8,0.,4.8,0.,4.8,0.,4.8
1979-07-13 18:10:28.220 ,0,0,78.,4.8,0.,4.8,0.,4.8,0.,4.8
1979-07-13 18:10:33.020 ,0,0,68.,4.8,0.,4.8,0.,4.8,0.,4.8
1979-07-13 18:10:37.820 ,0,0,59.,4.8,0.,4.8,0.,4.8,0.,4.8
1979-07-13 18:10:42.620 ,0,0,64.,4.8,0.,4.8,0.,4.8,0.,4.8
1979-07-13 18:10:47.420 ,0,0,74.,4.8,0.,4.8,0.,4.8,0.,4.8
1979-07-13 18:10:52.220 ,0,0,76.,4.8,0.,4.8,0.,4.8,0.,4.8
1979-07-13 18:10:57.020 ,0,0,55.,4.8,0.,4.8,0.,4.8,0.,4.8
1979-07-13 18:11:01.820 ,0,0,68.,4.8,0.,4.8,0.,4.8,0.,4.8
1979-07-13 18:11:06.620 ,0,0,72.,4.8,0.,4.8,0.,4.8,0.,4.8
1979-07-13 18:11:11.420 ,0,0,70.,4.8,0.,4.8,0.,4.8,0.,4.8
1979-07-13 18:11:16.220 ,0,0,60.,4.8,0.,4.8,0.,4.8,0.,4.8
1979-07-13 18:11:21.020 ,0,0,68.,4.8,0.,4.8,0.,4.8,0.,4.8
1979-07-13 18:11:25.820 ,0,0,63.,4.8,0.,4.8,0.,4.8,0.,4.8
1979-07-13 18:11:30.620 ,0,0,68.,4.8,0.,4.8,0.,4.8,0.,4.8
1979-07-13 18:11:35.420 ,0,0,66.,4.8,0.,4.8,0.,4.8,0.,4.8
1979-07-13 18:11:40.220 ,0,0,66.,4.8,0.,4.8,0.,4.8,0.,4.8
1979-07-13 18:11:45.020 ,0,0,48.,4.8,0.,4.8,0.,4.8,0.,4.8
1979-07-13 18:11:49.820 ,0,0,88.,4.8,0.,4.8,0.,4.8,0.,4.8
1979-07-13 18:11:54.620 ,0,0,68.,4.8,0.,4.8,0.,4.8,0.,4.8
1979-07-13 18:11:59.420 ,1,0,57.,4.8,0.,4.8,0.,4.8,0.,4.8
1979-07-13 18:12:04.220 ,1,0,84.,4.8,0.,4.8,0.,4.8,0.,4.8
1979-07-13 18:12:09.020 ,1,0,76.,4.8,0.,4.8,0.,4.8,0.,4.8
1979-07-13 18:12:13.820 ,1,0,70.,4.8,0.,4.8,0.,4.8,0.,4.8
1979-07-13 18:12:18.620 ,1,0,68.,4.8,0.,4.8,0.,4.8,0.,4.8
1979-07-13 18:12:23.420 ,1,0,72.,4.8,0.,4.8,0.,4.8,0.,4.8
1979-07-13 18:12:28.220 ,1,0,64.,4.8,0.,4.8,0.,4.8,0.,4.8
1979-07-13 18:12:33.020 ,1,0,70.,4.8,0.,4.8,0.,4.8,0.,4.8
1979-07-13 18:12:37.820 ,1,0,59.,4.8,0.,4.8,0.,4.8,0.,4.8
1979-07-13 18:12:42.620 ,1,0,68.,4.8,0.,4.8,0.,4.8,0.,4.8
1979-07-13 18:12:47.420 ,2,0,70.,4.8,0.,4.8,0.,4.8,0.,4.8
1979-07-13 18:12:52.220 ,2,0,78.,4.8,0.,4.8,0.,4.8,0.,4.8
1979-07-13 18:12:57.020 ,2,0,82.,4.8,0.,4.8,0.,4.8,1.,4.8
1979-07-13 18:13:01.820 ,2,0,62.,4.8,0.,4.8,0.,4.8,0.,4.8
1979-07-13 18:13:06.620 ,2,0,72.,4.8,0.,4.8,0.,4.8,0.,4.8
1979-07-13 18:13:11.420 ,2,0,64.,4.8,0.,4.8,0.,4.8,0.,4.8
1979-07-13 18:13:16.220 ,2,0,76.,4.8,0.,4.8,0.,4.8,0.,4.8
1979-07-13 18:13:21.020 ,2,0,66.,4.8,0.,4.8,0.,4.8,0.,4.8
1979-07-13 18:13:25.820 ,2,0,76.,4.8,0.,4.8,0.,4.8,0.,4.8
1979-07-13 18:13:30.620 ,2,0,57.,4.8,0.,4.8,0.,4.8,0.,4.8
1979-07-13 18:13:35.420 ,3,0,66.,4.8,0.,4.8,0.,4.8,0.,4.8
1979-07-13 18:13:40.220 ,3,0,63.,4.8,0.,4.8,0.,4.8,0.,4.8
1979-07-13 18:13:45.020 ,3,0,60.,4.8,0.,4.8,0.,4.8,0.,4.8
1979-07-13 18:13:49.820 ,3,0,57.,4.8,0.,4.8,0.,4.8,0.,4.8
1979-07-13 18:13:54.620 ,3,0,55.,4.8,0.,4.8,0.,4.8,0.,4.8
1979-07-13 18:13:59.420 ,3,0,63.,4.8,0.,4.8,0.,4.8,0.,4.8
1979-07-13 18:14:04.220 ,3,0,64.,4.8,0.,4.8,0.,4.8,1.,4.8
1979-07-13 18:14:09.020 ,3,0,56.,4.8,0.,4.8,0.,4.8,0.,4.8
1979-07-13 18:14:13.820 ,3,0,53.,4.8,0.,4.8,0.,4.8,0.,4.8
1979-07-13 18:14:18.620 ,3,0,57.,4.8,0.,4.8,0.,4.8,1.,4.8
1979-07-13 18:14:23.420 ,4,0,62.,4.8,0.,4.8,0.,4.8,0.,4.8
1979-07-13 18:14:28.220 ,4,0,51.,4.8,0.,4.8,0.,4.8,0.,4.8
1979-07-13 18:14:33.020 ,4,0,72.,4.8,0.,4.8,0.,4.8,0.,4.8
1979-07-13 18:14:37.820 ,4,0,76.,4.8,0.,4.8,0.,4.8,0.,4.8
1979-07-13 18:14:42.620 ,4,0,68.,4.8,0.,4.8,0.,4.8,0.,4.8
1979-07-13 18:14:47.420 ,4,0,66.,4.8,0.,4.8,0.,4.8,0.,4.8
1979-07-13 18:14:52.220 ,4,0,58.,4.8,0.,4.8,0.,4.8,0.,4.8
1979-07-13 18:14:57.020 ,4,0,92.,4.8,0.,4.8,0.,4.8,0.,4.8
1979-07-13 18:15:01.820 ,4,0,66.,4.8,0.,4.8,0.,4.8,0.,4.8
1979-07-13 18:15:06.620 ,4,0,70.,4.8,0.,4.8,0.,4.8,1.,4.8
1979-07-13 18:15:11.420 ,5,0,56.,4.8,0.,4.8,0.,4.8,0.,4.8
1979-07-13 18:15:16.220 ,5,0,68.,4.8,0.,4.8,0.,4.8,0.,4.8
1979-07-13 18:15:21.020 ,5,0,80.,4.8,0.,4.8,0.,4.8,0.,4.8
1979-07-13 18:15:25.820 ,5,0,78.,4.8,0.,4.8,0.,4.8,0.,4.8
1979-07-13 18:15:30.620 ,5,0,64.,4.8,0.,4.8,0.,4.8,0.,4.8
1979-07-13 18:15:35.420 ,5,0,68.,4.8,0.,4.8,0.,4.8,0.,4.8
1979-07-13 18:15:40.220 ,5,0,68.,4.8,0.,4.8,0.,4.8,0.,4.8
1979-07-13 18:15:45.020 ,5,0,64.,4.8,0.,4.8,0.,4.8,0.,4.8
1979-07-13 18:15:49.820 ,5,0,72.,4.8,0.,4.8,0.,4.8,0.,4.8
1979-07-13 18:15:54.620 ,5,0,72.,4.8,0.,4.8,0.,4.8,0.,4.8
1979-07-13 18:15:59.420 ,6,0,64.,4.8,0.,4.8,0.,4.8,2.,4.8
1979-07-13 18:16:04.220 ,6,0,72.,4.8,0.,4.8,0.,4.8,0.,4.8
1979-07-13 18:16:09.020 ,6,0,78.,4.8,0.,4.8,0.,4.8,0.,4.8
1979-07-13 18:16:13.820 ,6,0,90.,4.8,0.,4.8,0.,4.8,0.,4.8
1979-07-13 18:16:18.620 ,6,0,58.,4.8,0.,4.8,0.,4.8,0.,4.8
1979-07-13 18:16:23.420 ,6,0,60.,4.8,0.,4.8,0.,4.8,0.,4.8
1979-07-13 18:16:28.220 ,6,0,68.,4.8,0.,4.8,0.,4.8,0.,4.8
1979-07-13 18:16:33.020 ,6,0,74.,4.8,0.,4.8,0.,4.8,0.,4.8
1979-07-13 18:16:37.820 ,6,0,64.,4.8,0.,4.8,0.,4.8,0.,4.8
1979-07-13 18:16:42.620 ,6,0,80.,4.8,0.,4.8,0.,4.8,0.,4.8
1979-07-13 18:16:47.420 ,7,0,74.,4.8,0.,4.8,0.,4.8,0.,4.8
1979-07-13 18:16:52.220 ,7,0,66.,4.8,0.,4.8,0.,4.8,2.,4.8
1979-07-13 18:16:57.020 ,7,0,60.,4.8,0.,4.8,0.,4.8,0.,4.8
1979-07-13 18:17:01.820 ,7,0,49.,4.8,0.,4.8,0.,4.8,0.,4.8
1979-07-13 18:17:06.620 ,7,0,55.,4.8,0.,4.8,0.,4.8,0.,4.8
1979-07-13 18:17:11.420 ,7,0,51.,4.8,0.,4.8,0.,4.8,0.,4.8
1979-07-13 18:17:16.220 ,7,0,46.,4.8,0.,4.8,0.,4.8,0.,4.8
1979-07-13 18:17:21.020 ,7,0,53.,4.8,0.,4.8,0.,4.8,0.,4.8
1979-07-13 18:17:25.820 ,7,0,47.,4.8,0.,4.8,0.,4.8,0.,4.8
1979-07-13 18:17:30.620 ,7,0,57.,4.8,0.,4.8,0.,4.8,0.,4.8
1979-07-13 18:17:35.420 ,7,0,49.,4.8,0.,4.8,0.,4.8,0.,4.8
1979-07-13 18:17:40.220 ,7,0,57.,4.8,0.,4.8,0.,4.8,0.,4.8
1979-07-13 18:17:45.020 ,7,0,49.,4.8,0.,4.8,0.,4.8,0.,4.8
1979-07-13 18:17:49.820 ,7,0,64.,4.8,0.,4.8,0.,4.8,0.,4.8
1979-07-13 18:17:54.620 ,7,0,47.,4.8,0.,4.8,0.,4.8,0.,4.8
1979-07-13 18:17:59.420 ,7,0,40.,4.8,0.,4.8,0.,4.8,0.,4.8
1979-07-13 18:18:04.220 ,7,0,51.,4.8,0.,4.8,0.,4.8,0.,4.8
1979-07-13 18:18:09.020 ,7,0,57.,4.8,0.,4.8,0.,4.8,0.,4.8
1979-07-13 18:18:13.820 ,7,0,44.,4.8,0.,4.8,0.,4.8,0.,4.8
1979-07-13 18:18:18.620 ,7,0,42.,4.8,0.,4.8,0.,4.8,0.,4.8
1979-07-13 18:18:23.420 ,6,0,47.,4.8,0.,4.8,0.,4.8,0.,4.8
1979-07-13 18:18:28.220 ,6,0,54.,4.8,0.,4.8,0.,4.8,0.,4.8
1979-07-13 18:18:33.020 ,6,0,72.,4.8,0.,4.8,0.,4.8,0.,4.8
1979-07-13 18:18:37.820 ,6,0,61.,4.8,0.,4.8,0.,4.8,1.,4.8
1979-07-13 18:18:42.620 ,6,0,74.,4.8,0.,4.8,0.,4.8,0.,4.8
1979-07-13 18:18:47.420 ,6,0,82.,4.8,0.,4.8,0.,4.8,0.,4.8
1979-07-13 18:18:52.220 ,6,0,68.,4.8,0.,4.8,0.,4.8,0.,4.8
1979-07-13 18:18:57.020 ,6,0,72.,4.8,0.,4.8,0.,4.8,0.,4.8
1979-07-13 18:19:01.820 ,6,0,54.,4.8,0.,4.8,0.,4.8,0.,4.8
1979-07-13 18:19:06.620 ,6,0,66.,4.8,0.,4.8,0.,4.8,1.,4.8
1979-07-13 18:19:11.420 ,5,0,62.,4.8,0.,4.8,0.,4.8,1.,4.8
1979-07-13 18:19:16.220 ,5,0,66.,4.8,0.,4.8,0.,4.8,0.,4.8
1979-07-13 18:19:21.020 ,5,0,66.,4.8,0.,4.8,0.,4.8,0.,4.8
1979-07-13 18:19:25.820 ,5,0,82.,4.8,0.,4.8,0.,4.8,0.,4.8
1979-07-13 18:19:30.620 ,5,0,72.,4.8,0.,4.8,0.,4.8,0.,4.8
1979-07-13 18:19:35.420 ,5,0,80.,4.8,0.,4.8,0.,4.8,0.,4.8
1979-07-13 18:19:40.220 ,5,0,76.,4.8,0.,4.8,0.,4.8,0.,4.8
1979-07-13 18:19:45.020 ,5,0,68.,4.8,0.,4.8,0.,4.8,1.,4.8
1979-07-13 18:19:49.820 ,5,0,84.,4.8,0.,4.8,0.,4.8,0.,4.8
1979-07-13 18:19:54.620 ,5,0,90.,4.8,0.,4.8,0.,4.8,0.,4.8
1979-07-13 18:19:59.420 ,4,0,62.,4.8,0.,4.8,0.,4.8,0.,4.8
1979-07-13 18:20:04.220 ,4,0,74.,4.8,0.,4.8,0.,4.8,0.,4.8
1979-07-13 18:20:09.020 ,4,0,62.,4.8,0.,4.8,0.,4.8,0.,4.8
1979-07-13 18:20:13.820 ,4,0,80.,4.8,0.,4.8,0.,4.8,0.,4.8
1979-07-13 18:20:18.620 ,4,0,72.,4.8,0.,4.8,0.,4.8,0.,4.8
1979-07-13 18:20:23.420 ,4,0,68.,4.8,0.,4.8,0.,4.8,0.,4.8
1979-07-13 18:20:28.220 ,4,0,74.,4.8,0.,4.8,0.,4.8,1.,4.8
1979-07-13 18:20:33.020 ,4,0,61.,4.8,0.,4.8,0.,4.8,0.,4.8
1979-07-13 18:20:37.820 ,4,0,62.,4.8,0.,4.8,0.,4.8,0.,4.8
1979-07-13 18:20:42.620 ,4,0,72.,4.8,0.,4.8,0.,4.8,0.,4.8
1979-07-13 18:20:47.420 ,3,0,84.,4.8,0.,4.8,0.,4.8,1.,4.8
1979-07-13 18:20:52.220 ,3,0,59.,4.8,0.,4.8,0.,4.8,0.,4.8
1979-07-13 18:20:57.020 ,3,0,64.,4.8,0.,4.8,0.,4.8,0.,4.8
1979-07-13 18:21:01.820 ,3,0,60.,4.8,0.,4.8,0.,4.8,1.,4.8
1979-07-13 18:21:06.620 ,3,0,53.,4.8,0.,4.8,0.,4.8,0.,4.8
1979-07-13 18:21:11.420 ,3,0,51.,4.8,0.,4.8,0.,4.8,0.,4.8
1979-07-13 18:21:16.220 ,3,0,57.,4.8,0.,4.8,0.,4.8,0.,4.8
1979-07-13 18:21:21.020 ,3,0,,0,,0,,0,,0
1979-07-13 18:21:25.820 ,3,0,59.,4.8,0.,4.8,0.,4.8,0.,4.8
1979-07-13 18:21:30.620 ,3,0,72.,4.8,0.,4.8,0.,4.8,0.,4.8
1979-07-13 18:21:35.420 ,2,0,58.,4.8,0.,4.8,0.,4.8,0.,4.8
1979-07-13 18:21:40.220 ,2,0,59.,4.8,0.,4.8,0.,4.8,0.,4.8
1979-07-13 18:21:45.020 ,2,0,76.,4.8,0.,4.8,0.,4.8,0.,4.8
1979-07-13 18:21:49.820 ,2,0,68.,4.8,0.,4.8,0.,4.8,0.,4.8
1979-07-13 18:21:54.620 ,2,0,80.,4.8,0.,4.8,0.,4.8,0.,4.8
1979-07-13 18:21:59.420 ,2,0,55.,4.8,0.,4.8,0.,4.8,0.,4.8
1979-07-13 18:22:04.220 ,2,0,53.,4.8,0.,4.8,0.,4.8,0.,4.8
1979-07-13 18:22:09.020 ,2,0,62.,4.8,0.,4.8,0.,4.8,0.,4.8
1979-07-13 18:22:13.820 ,2,0,53.,4.8,0.,4.8,0.,4.8,0.,4.8
1979-07-13 18:22:18.620 ,2,0,72.,4.8,0.,4.8,0.,4.8,0.,4.8
1979-07-13 18:23:11.420 ,0,0,62.,4.8,0.,4.8,0.,4.8,1.,4.8
1979-07-13 18:23:16.220 ,0,0,74.,4.8,0.,4.8,0.,4.8,0.,4.8
1979-07-13 18:23:21.020 ,0,0,59.,4.8,0.,4.8,0.,4.8,0.,4.8
1979-07-13 18:23:25.820 ,0,0,48.,4.8,0.,4.8,0.,4.8,0.,4.8
1979-07-13 18:23:30.620 ,0,0,64.,4.8,0.,4.8,0.,4.8,0.,4.8
1979-07-13 18:23:35.420 ,0,0,63.,4.8,0.,4.8,0.,4.8,0.,4.8
1979-07-13 18:23:40.220 ,0,0,74.,4.8,0.,4.8,0.,4.8,1.,4.8
1979-07-13 18:23:45.020 ,0,0,62.,4.8,0.,4.8,0.,4.8,0.,4.8
1979-07-13 18:23:49.820 ,0,0,68.,4.8,0.,4.8,0.,4.8,0.,4.8
1979-07-13 18:23:54.620 ,0,0,66.,4.8,0.,4.8,0.,4.8,0.,4.8
1979-07-13 18:23:59.420 ,0,0,72.,4.8,0.,4.8,0.,4.8,0.,4.8
1979-07-13 18:24:04.220 ,0,0,74.,4.8,0.,4.8,0.,4.8,0.,4.8
1979-07-13 18:24:09.020 ,0,0,60.,4.8,0.,4.8,0.,4.8,0.,4.8
1979-07-13 18:24:13.820 ,0,0,66.,4.8,0.,4.8,0.,4.8,0.,4.8
1979-07-13 18:24:18.620 ,0,0,66.,4.8,0.,4.8,0.,4.8,0.,4.8
1979-07-13 18:24:23.420 ,0,0,66.,4.8,0.,4.8,0.,4.8,0.,4.8
1979-07-13 18:24:28.220 ,0,0,74.,4.8,0.,4.8,0.,4.8,0.,4.8
1979-07-13 18:24:33.020 ,0,0,70.,4.8,0.,4.8,0.,4.8,0.,4.8
1979-07-13 18:24:37.820 ,0,0,88.,4.8,0.,4.8,0.,4.8,0.,4.8
1979-07-13 18:24:42.620 ,0,0,50.,4.8,0.,4.8,0.,4.8,0.,4.8
1979-07-13 18:24:47.420 ,1,0,80.,4.8,0.,4.8,0.,4.8,0.,4.8
1979-07-13 18:24:52.220 ,1,0,57.,4.8,0.,4.8,0.,4.8,0.,4.8
1979-07-13 18:24:57.020 ,1,0,61.,4.8,0.,4.8,0.,4.8,1.,4.8
1979-07-13 18:25:01.820 ,1,0,57.,4.8,0.,4.8,0.,4.8,0.,4.8
1979-07-13 18:25:06.620 ,1,0,56.,4.8,0.,4.8,0.,4.8,0.,4.8
1979-07-13 18:25:11.420 ,1,0,72.,4.8,0.,4.8,0.,4.8,0.,4.8
1979-07-13 18:25:16.220 ,1,0,72.,4.8,0.,4.8,0.,4.8,0.,4.8
1979-07-13 18:25:21.020 ,1,0,80.,4.8,0.,4.8,0.,4.8,0.,4.8
1979-07-13 18:25:25.820 ,1,0,66.,4.8,0.,4.8,0.,4.8,0.,4.8
1979-07-13 18:25:30.620 ,1,0,76.,4.8,0.,4.8,0.,4.8,0.,4.8
1979-07-13 18:25:35.420 ,2,0,64.,4.8,0.,4.8,0.,4.8,0.,4.8
1979-07-13 18:25:40.220 ,2,0,72.,4.8,0.,4.8,0.,4.8,0.,4.8
1979-07-13 18:25:45.020 ,2,0,58.,4.8,0.,4.8,0.,4.8,0.,4.8
1979-07-13 18:25:49.820 ,2,0,64.,4.8,0.,4.8,0.,4.8,0.,4.8
1979-07-13 18:25:54.620 ,2,0,72.,4.8,0.,4.8,0.,4.8,0.,4.8
1979-07-13 18:25:59.420 ,2,0,54.,4.8,0.,4.8,0.,4.8,0.,4.8
1979-07-13 18:26:04.220 ,2,0,58.,4.8,0.,4.8,0.,4.8,0.,4.8
1979-07-13 18:26:09.020 ,2,0,62.,4.8,0.,4.8,0.,4.8,0.,4.8
1979-07-13 18:26:13.820 ,2,0,66.,4.8,0.,4.8,0.,4.8,0.,4.8
1979-07-13 18:26:18.620 ,2,0,59.,4.8,0.,4.8,0.,4.8,0.,4.8
1979-07-13 18:26:23.420 ,3,0,53.,4.8,0.,4.8,0.,4.8,1.,4.8
1979-07-13 18:26:28.220 ,3,0,68.,4.8,0.,4.8,0.,4.8,0.,4.8
1979-07-13 18:26:33.020 ,3,0,51.,4.8,0.,4.8,0.,4.8,1.,4.8
1979-07-13 18:26:37.820 ,3,0,61.,4.8,0.,4.8,0.,4.8,0.,4.8
1979-07-13 18:26:42.620 ,3,0,62.,4.8,0.,4.8,0.,4.8,0.,4.8
1979-07-13 18:26:47.420 ,3,0,76.,4.8,0.,4.8,0.,4.8,0.,4.8
1979-07-13 18:26:52.220 ,3,0,52.,4.8,0.,4.8,0.,4.8,0.,4.8
1979-07-13 18:26:57.020 ,3,0,64.,4.8,0.,4.8,0.,4.8,1.,4.8
1979-07-13 18:27:01.820 ,3,0,47.,4.8,0.,4.8,0.,4.8,1.,4.8
1979-07-13 18:27:06.620 ,3,0,61.,4.8,0.,4.8,0.,4.8,0.,4.8
1979-07-13 18:27:11.420 ,4,0,58.,4.8,0.,4.8,0.,4.8,0.,4.8
1979-07-13 18:27:16.220 ,4,0,59.,4.8,0.,4.8,0.,4.8,0.,4.8
1979-07-13 18:27:21.020 ,4,0,50.,4.8,0.,4.8,0.,4.8,0.,4.8
1979-07-13 18:27:25.820 ,4,0,64.,4.8,0.,4.8,0.,4.8,0.,4.8
1979-07-13 18:27:30.620 ,4,0,68.,4.8,0.,4.8,0.,4.8,0.,4.8
1979-07-13 18:27:35.420 ,4,0,64.,4.8,0.,4.8,0.,4.8,0.,4.8
1979-07-13 18:27:40.220 ,4,0,58.,4.8,0.,4.8,0.,4.8,0.,4.8
1979-07-13 18:27:45.020 ,4,0,74.,4.8,0.,4.8,0.,4.8,0.,4.8
1979-07-13 18:27:49.820 ,4,0,63.,4.8,0.,4.8,0.,4.8,0.,4.8
1979-07-13 18:27:54.620 ,4,0,74.,4.8,0.,4.8,0.,4.8,0.,4.8
1979-07-13 18:27:59.420 ,5,0,68.,4.8,0.,4.8,0.,4.8,0.,4.8
1979-07-13 18:28:04.220 ,5,0,51.,4.8,0.,4.8,0.,4.8,0.,4.8
1979-07-13 18:28:09.020 ,5,0,64.,4.8,0.,4.8,0.,4.8,0.,4.8
1979-07-13 18:28:13.820 ,5,0,72.,4.8,0.,4.8,0.,4.8,0.,4.8
1979-07-13 18:28:18.620 ,5,0,78.,4.8,0.,4.8,0.,4.8,0.,4.8
1979-07-13 18:28:23.420 ,5,0,59.,4.8,0.,4.8,0.,4.8,0.,4.8
1979-07-13 18:28:28.220 ,5,0,68.,4.8,0.,4.8,0.,4.8,0.,4.8
1979-07-13 18:28:33.020 ,5,0,78.,4.8,0.,4.8,0.,4.8,1.,4.8
1979-07-13 18:28:37.820 ,5,0,80.,4.8,0.,4.8,0.,4.8,1.,4.8
1979-07-13 18:28:42.620 ,5,0,70.,4.8,0.,4.8,0.,4.8,0.,4.8
1979-07-13 18:28:47.420 ,6,0,64.,4.8,0.,4.8,0.,4.8,0.,4.8
1979-07-13 18:28:52.220 ,6,0,70.,4.8,0.,4.8,0.,4.8,0.,4.8
1979-07-13 18:28:57.020 ,6,0,98.,4.8,0.,4.8,0.,4.8,0.,4.8
1979-07-13 18:29:01.820 ,6,0,47.,4.8,0.,4.8,0.,4.8,0.,4.8
1979-07-13 18:29:06.620 ,6,0,80.,4.8,0.,4.8,0.,4.8,0.,4.8
1979-07-13 18:29:11.420 ,6,0,80.,4.8,0.,4.8,0.,4.8,0.,4.8
1979-07-13 18:29:16.220 ,6,0,59.,4.8,0.,4.8,0.,4.8,0.,4.8
1979-07-13 18:29:21.020 ,6,0,70.,4.8,0.,4.8,0.,4.8,1.,4.8
1979-07-13 18:29:25.820 ,6,0,80.,4.8,0.,4.8,0.,4.8,0.,4.8
1979-07-13 18:29:30.620 ,6,0,72.,4.8,0.,4.8,0.,4.8,0.,4.8
1979-07-13 18:29:35.420 ,7,0,68.,4.8,0.,4.8,0.,4.8,0.,4.8
1979-07-13 18:29:40.220 ,7,0,78.,4.8,0.,4.8,0.,4.8,0.,4.8
1979-07-13 18:29:45.020 ,7,0,50.,4.8,0.,4.8,0.,4.8,0.,4.8
1979-07-13 18:29:49.820 ,7,0,48.,4.8,0.,4.8,0.,4.8,0.,4.8
1979-07-13 18:29:54.620 ,7,0,53.,4.8,0.,4.8,0.,4.8,0.,4.8
1979-07-13 18:29:59.420 ,7,0,44.,4.8,0.,4.8,0.,4.8,0.,4.8
1979-07-13 18:30:04.220 ,7,0,64.,4.8,0.,4.8,0.,4.8,0.,4.8
1979-07-13 18:30:09.020 ,7,0,47.,4.8,0.,4.8,0.,4.8,0.,4.8
1979-07-13 18:30:13.820 ,7,0,64.,4.8,0.,4.8,0.,4.8,0.,4.8
1979-07-13 18:30:18.620 ,7,0,57.,4.8,0.,4.8,0.,4.8,0.,4.8
1979-07-13 18:30:23.420 ,7,0,55.,4.8,0.,4.8,0.,4.8,0.,4.8
1979-07-13 18:30:28.220 ,7,0,49.,4.8,0.,4.8,0.,4.8,0.,4.8
1979-07-13 18:30:33.020 ,7,0,54.,4.8,0.,4.8,0.,4.8,0.,4.8
1979-07-13 18:30:37.820 ,7,0,56.,4.8,0.,4.8,0.,4.8,0.,4.8
1979-07-13 18:30:42.620 ,7,0,49.,4.8,0.,4.8,0.,4.8,0.,4.8
1979-07-13 18:30:47.420 ,7,0,43.,4.8,0.,4.8,0.,4.8,0.,4.8
1979-07-13 18:30:52.220 ,7,0,44.,4.8,0.,4.8,0.,4.8,0.,4.8
1979-07-13 18:30:57.020 ,7,0,55.,4.8,0.,4.8,0.,4.8,0.,4.8
1979-07-13 18:31:01.820 ,7,0,58.,4.8,0.,4.8,0.,4.8,0.,4.8
1979-07-13 18:31:06.620 ,7,0,53.,4.8,0.,4.8,0.,4.8,0.,4.8
1979-07-13 18:31:11.420 ,6,0,48.,4.8,0.,4.8,0.,4.8,0.,4.8
1979-07-13 18:31:16.220 ,6,0,45.,4.8,0.,4.8,0.,4.8,0.,4.8
1979-07-13 18:31:21.020 ,6,0,55.,4.8,0.,4.8,0.,4.8,0.,4.8
1979-07-13 18:31:25.820 ,6,0,72.,4.8,0.,4.8,0.,4.8,1.,4.8
1979-07-13 18:31:30.620 ,6,0,90.,4.8,0.,4.8,0.,4.8,0.,4.8
1979-07-13 18:31:35.420 ,6,0,60.,4.8,0.,4.8,0.,4.8,0.,4.8
1979-07-13 18:31:40.220 ,6,0,72.,4.8,0.,4.8,0.,4.8,0.,4.8
1979-07-13 18:31:45.020 ,6,0,61.,4.8,0.,4.8,0.,4.8,0.,4.8
1979-07-13 18:31:49.820 ,6,0,60.,4.8,0.,4.8,0.,4.8,0.,4.8
1979-07-13 18:31:54.620 ,6,0,66.,4.8,0.,4.8,0.,4.8,0.,4.8
1979-07-13 18:31:59.420 ,5,0,59.,4.8,0.,4.8,0.,4.8,0.,4.8
1979-07-13 18:32:04.220 ,5,0,66.,4.8,0.,4.8,0.,4.8,0.,4.8
1979-07-13 18:32:09.020 ,5,0,80.,4.8,0.,4.8,0.,4.8,0.,4.8
1979-07-13 18:32:13.820 ,5,0,74.,4.8,0.,4.8,0.,4.8,1.,4.8
1979-07-13 18:32:18.620 ,5,0,59.,4.8,0.,4.8,0.,4.8,0.,4.8
1979-07-13 18:32:23.420 ,5,0,78.,4.8,0.,4.8,0.,4.8,0.,4.8
1979-07-13 18:32:28.220 ,5,0,70.,4.8,0.,4.8,0.,4.8,0.,4.8
1979-07-13 18:32:33.020 ,5,0,57.,4.8,0.,4.8,0.,4.8,0.,4.8
1979-07-13 18:32:37.820 ,5,0,64.,4.8,0.,4.8,0.,4.8,0.,4.8
1979-07-13 18:32:42.620 ,5,0,74.,4.8,0.,4.8,0.,4.8,0.,4.8
1979-07-13 18:32:47.420 ,4,0,64.,4.8,0.,4.8,0.,4.8,0.,4.8
1979-07-13 18:32:52.220 ,4,0,70.,4.8,0.,4.8,0.,4.8,1.,4.8
1979-07-13 18:32:57.020 ,4,0,68.,4.8,0.,4.8,0.,4.8,0.,4.8
1979-07-13 18:33:01.820 ,4,0,70.,4.8,0.,4.8,0.,4.8,0.,4.8
1979-07-13 18:33:06.620 ,4,0,63.,4.8,0.,4.8,0.,4.8,1.,4.8
1979-07-13 18:33:11.420 ,4,0,80.,4.8,0.,4.8,0.,4.8,0.,4.8
1979-07-13 18:33:16.220 ,4,0,74.,4.8,0.,4.8,0.,4.8,0.,4.8
1979-07-13 18:33:21.020 ,4,0,70.,4.8,0.,4.8,0.,4.8,0.,4.8
1979-07-13 18:33:25.820 ,4,0,57.,4.8,0.,4.8,0.,4.8,0.,4.8
1979-07-13 18:33:30.620 ,4,0,66.,4.8,0.,4.8,0.,4.8,0.,4.8
1979-07-13 18:33:35.420 ,3,0,68.,4.8,0.,4.8,0.,4.8,1.,4.8